Find Starlink 30175

NORAD ID: 57311 Int'l Des: 2023-096 Owner: SPXS Country: US Constellation: starlink decayed
LEOCIRCULAR
Vis

Historical Track — Feb 24, 2026

Loading 3D Globe...

About Starlink 30175

Description loading...

Altitude History

Loading altitude history...

Two-Line Element Set

1 57311U 23096X 26055.21073554 .15653976 91501-5 49506-2 0 9991
2 57311 42.9582 214.7468 0014892 320.2419 39.7376 16.25082464145638
Epoch: Feb 24, 2026 • Age: 1192 hours

Current Status

Position data unavailable
Launch Date Jul 10, 2023
Age 2.7 years
Decay Date Feb 24, 2026
Type internet

Technical Details

Classification Payload
Mass 730.00 kg
Dry Mass 700.00 kg
Total Mass 730.00 kg
Length 0.30 m
Diameter 4.10 m
Span 29.00 m
Shape Box + pan
Manufacturer SPXS
Bus Type Starlink V2M
Phase Status Unknown Transfer Status
Owner/State SPXS/US

Most Searched